Wind_Speed
31 31 37 29 29 30 27 26 22 14 7 2 5 9 16 24 29 33 24 26 27 28 32 31 31 37 41 42 39 35 23 23 18 22 19 23 26 24 20 19 19 17 11 9 10
26 27 29 30 28 27 24 24 21 18 14 6 4 3 14 18 26 35 28 34 27 28 34 34 33 40 45 42 32 31 23 11 18 24 19 21 29 26 20 18 18 17 14 12 10
22 24 23 23 23 24 24 23 18 16 12 11 6 4 5 23 26 28 25 25 26 31 33 33 33 41 43 38 29 29 18 17 22 22 18 16 26 24 19 17 17 15 13 13 12
19 20 23 22 21 22 21 22 22 15 14 10 11 13 14 22 22 25 29 27 27 31 33 35 36 41 42 35 27 20 17 20 19 18 20 18 22 22 20 19 15 13 13 13 12
17 16 18 19 16 19 21 23 29 25 24 21 15 9 5 25 23 27 32 26 31 33 37 37 36 37 39 32 27 19 17 19 17 16 16 14 17 18 18 15 13 11 12 13 13
21 18 17 17 16 14 18 21 27 28 28 27 32 29 24 23 26 26 26 32 33 37 37 37 31 25 22 33 23 22 15 15 17 17 16 13 15 14 15 14 14 14 13 14 15
23 18 19 17 18 22 24 21 23 28 29 31 29 30 31 32 30 33 34 35 35 38 36 31 26 29 23 27 26 14 15 11 14 14 13 12 12 13 14 13 16 15 16 17 17
23 20 17 20 21 23 23 26 25 28 32 30 31 33 34 29 34 38 37 37 41 38 31 30 27 28 24 18 24 15 13 13 13 13 12 13 12 13 14 14 15 16 17 18 18
25 17 15 20 23 21 25 31 28 28 32 34 31 30 29 26 29 34 37 42 24 29 26 30 26 24 20 20 20 15 10 12 10 12 12 12 11 15 13 13 14 15 17 18 19
26 23 19 19 21 27 29 23 20 19 22 27 25 25 22 23 25 28 31 36 24 25 27 26 23 23 21 19 13 12 9 10 9 9 12 14 14 15 15 16 16 16 16 17 17
24 25 23 20 18 20 19 22 28 32 30 29 27 32 25 25 22 21 29 26 23 23 27 26 27 26 23 12 12 14 7 7 9 8 9 14 16 16 17 20 16 16 16 17 17
18 21 25 26 26 27 25 29 32 29 30 26 21 26 28 25 26 24 24 24 21 23 25 27 26 23 20 15 14 15 10 8 6 6 9 13 17 16 16 17 14 13 14 16 19
12 15 17 22 25 24 24 27 29 29 29 25 23 21 23 24 26 23 22 23 18 20 21 21 21 21 19 18 16 15 11 8 6 8 9 14 18 13 11 10 12 13 16 19 21
13 7 9 9 10 8 8 11 11 14 11 14 16 16 17 22 25 23 21 21 18 18 20 18 19 19 16 14 13 11 8 5 4 5 3 6 7 8 11 10 13 15 18 20 22
18 11 6 6 4 6 5 6 3 2 5 6 14 13 10 12 17 15 12 16 18 11 11 14 14 14 13 11 9 6 5 4 4 6 8 6 5 2 12 9 12 12 13 12 11
20 18 13 10 7 4 4 5 4 4 5 5 7 13 14 13 13 13 14 13 12 10 13 15 11 8 8 8 6 4 3 2 4 5 2 3 4 4 4 11 11 11 11 11 13
20 21 18 13 9 8 7 6 5 8 6 7 10 11 10 14 13 12 11 8 6 7 12 11 8 6 7 6 5 5 3 2 3 2 4 1 8 9 11 14 14 14 12 14 15
18 19 19 15 12 10 9 10 12 8 10 11 11 9 9 11 11 12 10 10 8 9 10 5 4 6 5 5 4 4 4 2 4 2 3 6 8 3 9 12 16 13 11 12 13
16 17 15 16 14 11 10 11 8 10 13 12 10 8 4 6 7 6 6 7 7 5 4 5 4 4 6 5 5 4 4 5 1 3 2 5 8 13 8 5 6 8 19 15 10
18 16 16 16 13 12 9 13 11 15 13 6 5 4 3 7 4 2 3 3 4 5 5 5 4 5 6 7 8 8 8 3 4 2 4 6 8 10 6 9 14 21 13 9 5
22 19 19 17 13 10 11 14 13 11 4 3 5 6 5 4 4 3 2 2 5 6 6 5 5 4 5 7 9 12 12 8 6 5 4 1 5 5 10 11 9 11 9 6 6
20 19 18 16 13 11 10 8 7 3 3 4 6 5 4 4 4 3 2 1 4 5 5 7 3 3 4 5 7 9 11 13 6 5 7 2 10 5 6 8 6 10 11 10 12
17 16 15 17 12 12 8 5 4 3 3 1 2 3 4 4 1 3 2 2 3 5 3 5 4 2 3 7 11 15 15 15 16 12 15 5 5 6 5 8 18 22 23 22 25
14 14 15 16 15 11 7 4 2 2 1 1 1 1 3 3 3 2 2 2 4 5 6 5 8 8 6 3 6 9 9 12 20 15 18 30 24 20 25 28 27 25 26 28 29
14 10 13 13 12 11 9 6 3 2 3 4 4 5 6 6 6 7 8 7 8 8 10 9 10 12 15 17 20 22 24 23 28 31 25 29 29 33 32 30 30 31 32 31 24
14 13 12 11 13 11 8 9 8 5 5 6 7 7 7 9 10 10 9 9 10 9 10 13 13 16 21 19 22 28 28 30 31 32 37 36 30 16 11 14 14 15 20 15 11
14 13 13 11 11 13 10 9 10 10 10 6 8 10 10 10 13 14 15 16 17 17 15 16 15 13 11 12 18 24 15 13 15 15 19 27 14 10 11 15 15 10 8 9 11
Wind_Direction
33 30 23 43 52 63 66 84 82 90 74 92 274 241 218 202 200 201 202 200 199 194 174 172 178 176 173 173 174 175 176 180 189 205 215 198 190 189 195 194 201 207 199 208 228
34 38 33 37 54 62 70 81 89 92 75 87 82 240 219 205 204 202 191 193 191 180 171 169 177 176 172 171 166 168 177 184 191 196 208 201 191 196 192 191 202 212 218 227 238
35 47 46 41 48 62 77 81 93 108 107 124 139 148 214 200 200 203 189 194 179 180 167 160 173 177 174 166 165 175 177 156 162 177 189 191 190 197 197 195 202 219 227 238 249
38 48 52 47 52 65 75 79 68 69 71 106 117 70 134 184 189 208 200 192 174 174 160 152 173 175 170 165 171 183 168 156 166 180 197 195 186 197 204 210 213 221 238 249 257
41 48 55 57 61 76 81 80 77 75 86 99 121 138 146 162 178 163 171 162 171 158 154 157 169 169 169 169 178 175 167 169 180 192 199 208 193 203 210 225 231 226 239 249 260
36 52 52 66 66 71 92 92 85 81 82 83 96 101 118 131 135 136 147 147 150 149 147 142 151 152 170 181 180 181 170 179 191 203 204 201 201 206 219 229 244 250 250 258 268
35 50 63 63 74 87 97 85 97 92 91 93 96 104 115 114 117 121 131 134 139 135 128 134 144 164 173 184 187 188 200 178 186 192 200 202 211 220 231 232 243 252 263 268 272
43 51 63 64 83 91 88 100 98 100 104 102 101 103 100 113 124 129 134 140 141 140 139 147 166 174 169 166 178 178 185 193 190 193 202 206 212 224 235 237 249 255 261 268 272
50 61 59 50 86 85 95 98 97 102 101 96 92 95 95 116 130 136 143 148 145 150 154 163 166 167 157 162 158 165 182 192 194 202 210 217 229 233 236 246 256 265 265 267 269
56 61 74 65 84 90 98 75 73 82 89 87 89 85 107 111 125 133 149 150 128 141 151 155 154 151 150 155 160 158 170 193 204 218 228 239 245 258 263 264 262 263 264 267 268
55 68 72 79 74 80 89 92 85 84 85 86 94 99 105 110 116 130 145 145 139 143 146 154 151 151 153 142 154 157 155 195 212 228 240 247 250 250 261 267 266 267 267 268 271
47 65 80 89 88 90 93 89 83 83 85 85 81 99 107 106 113 117 130 141 135 140 147 141 144 143 147 153 150 154 171 181 218 251 255 260 259 262 256 265 273 265 261 266 268
36 63 70 79 87 88 86 84 86 86 84 82 85 90 100 116 111 115 129 130 130 129 140 144 135 150 162 162 156 170 179 191 245 262 277 286 283 265 262 270 264 267 269 270 271
19 44 85 84 75 52 69 75 87 91 77 62 81 80 94 103 109 118 125 126 122 119 131 127 140 152 156 158 167 165 174 202 259 277 275 312 298 271 272 268 264 264 268 275 285
18 9 350 335 340 4 36 86 113 82 58 63 80 82 81 103 112 110 110 118 121 124 128 135 143 146 151 152 158 162 178 217 254 281 293 274 259 247 286 270 272 272 277 276 279
24 17 7 5 3 41 55 76 96 108 39 88 86 100 104 102 100 101 112 120 100 104 114 133 134 132 145 151 164 154 162 226 268 270 287 251 251 282 309 296 289 291 284 286 291
28 19 19 22 25 26 32 41 75 62 109 105 102 106 114 117 119 117 111 114 132 113 121 126 138 136 156 167 176 183 191 49 4 12 217 198 268 260 290 290 294 300 299 297 297
26 25 21 28 34 40 43 62 66 80 101 116 110 103 112 120 123 131 129 128 123 129 131 133 149 170 178 187 175 186 198 162 194 203 264 251 246 238 286 298 302 311 326 313 287
33 24 26 33 35 40 50 75 105 106 117 112 97 88 85 112 138 134 132 137 145 151 148 155 151 160 189 197 199 187 196 200 201 246 302 242 270 282 285 309 291 294 321 309 283
30 33 30 36 40 49 68 92 113 121 121 117 101 94 81 120 114 90 137 153 160 167 177 175 160 195 206 212 218 211 188 181 201 141 261 272 268 266 281 302 302 309 311 296 279
20 36 31 31 40 53 80 101 117 132 108 114 128 135 120 141 144 164 187 182 177 198 200 206 214 195 195 213 216 210 209 208 208 216 179 272 262 256 312 327 13 18 9 341 303
16 24 34 35 34 51 71 83 98 95 93 114 132 133 137 151 176 189 219 248 212 214 208 207 218 213 227 244 232 237 222 217 212 201 220 245 272 238 85 45 343 317 309 284 266
8 18 29 29 40 45 55 69 68 49 39 62 127 141 152 169 154 243 275 229 234 226 227 214 220 212 257 246 246 243 239 236 228 239 231 187 234 172 190 290 310 304 294 289 290
8 10 14 19 28 28 32 42 31 351 43 360 272 178 177 185 204 202 234 241 235 227 239 243 236 232 243 233 233 246 244 232 227 232 238 234 253 252 271 281 285 281 284 291 288
355 355 2 356 9 11 9 2 354 310 286 274 250 248 252 249 243 247 253 239 252 249 247 249 258 256 260 265 271 274 269 262 253 256 254 271 274 284 289 287 264 275 281 287 287
328 340 342 346 351 354 354 347 337 326 300 279 266 255 254 253 259 284 281 269 260 249 255 264 270 278 281 282 274 271 266 260 257 259 263 272 287 298 274 266 264 292 297 298 267
312 313 324 331 328 336 340 335 323 314 302 288 268 266 260 257 264 263 266 270 271 272 267 260 260 268 271 278 290 287 272 257 256 261 261 259 282 273 272 261 266 274 278 275 264
Height
3050 3043 3037 3027 3020 3016 3016 3018 3020 3023 3024 3026 3029 3030 3033 3038 3043 3049 3055 3060 3064 3072 3079 3086 3096 3105 3109 3114 3121 3127 3135 3138 3138 3142 3148 3152 3153 3155 3157 3162 3163 3167 3171 3172 3174
3055 3047 3042 3037 3029 3024 3022 3021 3022 3023 3023 3024 3027 3028 3032 3038 3042 3047 3054 3056 3064 3072 3077 3084 3095 3103 3107 3114 3123 3128 3132 3135 3136 3140 3146 3149 3153 3154 3157 3160 3163 3165 3168 3171 3172
3057 3050 3047 3043 3037 3031 3029 3027 3026 3024 3023 3023 3024 3026 3030 3035 3042 3047 3052 3061 3066 3073 3077 3085 3098 3104 3109 3117 3122 3126 3130 3134 3135 3140 3144 3148 3151 3154 3157 3159 3161 3165 3167 3169 3171
3059 3053 3049 3047 3043 3038 3035 3032 3030 3028 3025 3025 3026 3028 3029 3035 3042 3043 3052 3060 3066 3073 3080 3086 3097 3103 3111 3117 3122 3127 3131 3134 3136 3139 3143 3146 3150 3152 3156 3158 3161 3163 3166 3167 3168
3061 3056 3051 3049 3046 3044 3041 3038 3035 3033 3031 3029 3028 3030 3034 3037 3042 3045 3053 3060 3069 3076 3082 3088 3098 3106 3111 3117 3121 3127 3130 3134 3137 3141 3144 3146 3150 3152 3155 3156 3159 3163 3164 3165 3166
3063 3059 3055 3051 3049 3046 3046 3043 3041 3041 3038 3035 3032 3035 3038 3040 3045 3051 3057 3065 3073 3079 3086 3093 3103 3109 3114 3117 3122 3128 3131 3135 3138 3141 3144 3146 3149 3152 3155 3156 3157 3159 3161 3162 3163
3067 3063 3060 3056 3053 3050 3049 3050 3048 3046 3044 3044 3043 3043 3044 3049 3052 3057 3065 3071 3079 3084 3090 3097 3105 3110 3113 3118 3125 3129 3133 3135 3138 3139 3142 3145 3148 3150 3153 3155 3156 3157 3158 3159 3160
3073 3067 3064 3062 3058 3057 3056 3055 3054 3053 3051 3051 3052 3050 3050 3055 3058 3063 3071 3078 3083 3086 3092 3099 3104 3109 3116 3120 3126 3131 3133 3135 3137 3138 3141 3144 3146 3147 3150 3152 3153 3155 3156 3156 3156
3080 3074 3070 3067 3063 3062 3062 3060 3061 3059 3057 3056 3058 3059 3060 3064 3067 3070 3075 3082 3085 3089 3096 3101 3107 3113 3118 3122 3127 3131 3132 3134 3137 3138 3140 3142 3143 3146 3147 3149 3150 3151 3152 3152 3152
3085 3080 3076 3076 3072 3068 3067 3067 3066 3065 3063 3062 3063 3068 3071 3072 3075 3076 3082 3086 3089 3093 3098 3105 3109 3113 3119 3123 3126 3130 3132 3134 3136 3138 3139 3140 3142 3143 3145 3145 3147 3147 3147 3147 3148
3090 3086 3083 3080 3079 3077 3075 3073 3073 3071 3069 3069 3071 3070 3076 3078 3081 3084 3086 3091 3094 3098 3101 3106 3108 3114 3118 3124 3125 3129 3131 3133 3135 3137 3138 3138 3139 3141 3142 3141 3142 3143 3143 3143 3143
3093 3092 3089 3086 3084 3083 3083 3077 3076 3079 3077 3079 3081 3079 3081 3084 3086 3089 3093 3097 3099 3101 3104 3107 3110 3116 3120 3123 3126 3128 3130 3133 3135 3136 3137 3136 3135 3137 3137 3137 3138 3139 3139 3139 3138
3096 3094 3093 3091 3089 3089 3088 3084 3083 3084 3083 3086 3087 3088 3088 3092 3092 3095 3098 3099 3102 3104 3107 3109 3114 3116 3121 3123 3126 3128 3130 3132 3135 3135 3135 3134 3131 3132 3134 3134 3134 3133 3134 3134 3133
3099 3096 3095 3095 3095 3093 3092 3090 3088 3087 3089 3094 3092 3095 3096 3095 3096 3098 3101 3103 3104 3108 3110 3113 3115 3118 3121 3123 3126 3128 3131 3132 3134 3135 3135 3135 3132 3130 3130 3130 3129 3129 3128 3128 3127
3101 3099 3096 3094 3094 3093 3093 3091 3091 3091 3094 3100 3098 3098 3098 3099 3102 3103 3105 3106 3108 3110 3112 3116 3119 3121 3122 3124 3126 3129 3130 3132 3133 3133 3133 3133 3133 3126 3126 3125 3125 3124 3125 3126 3125
3103 3101 3098 3096 3094 3095 3093 3092 3093 3095 3100 3102 3102 3101 3102 3103 3105 3106 3107 3110 3111 3112 3113 3116 3119 3121 3123 3125 3127 3129 3130 3130 3131 3132 3132 3130 3132 3125 3124 3122 3121 3121 3122 3122 3121
3106 3103 3099 3096 3096 3093 3093 3094 3095 3096 3106 3106 3105 3105 3105 3106 3107 3109 3110 3112 3114 3116 3117 3118 3120 3123 3124 3126 3127 3128 3129 3130 3134 3133 3133 3130 3132 3123 3121 3120 3119 3119 3119 3118 3118
3108 3106 3103 3099 3096 3096 3095 3095 3095 3104 3104 3107 3107 3108 3109 3109 3110 3111 3112 3113 3114 3115 3117 3119 3123 3123 3123 3125 3126 3127 3128 3128 3135 3135 3130 3130 3123 3119 3118 3118 3117 3116 3115 3114 3113
3111 3109 3107 3103 3100 3098 3098 3097 3101 3105 3107 3109 3110 3111 3111 3111 3112 3113 3113 3114 3114 3115 3117 3118 3120 3121 3122 3124 3127 3126 3127 3129 3129 3130 3130 3123 3119 3118 3116 3116 3115 3113 3111 3110 3110
3115 3111 3109 3107 3103 3101 3101 3099 3103 3106 3108 3110 3110 3112 3112 3113 3114 3114 3114 3114 3114 3115 3116 3117 3119 3120 3121 3122 3124 3125 3127 3127 3127 3131 3132 3120 3117 3114 3114 3113 3111 3110 3109 3107 3107
3118 3113 3111 3110 3108 3106 3104 3104 3106 3108 3109 3110 3110 3112 3113 3114 3114 3115 3116 3116 3115 3116 3116 3117 3118 3121 3120 3120 3120 3122 3122 3123 3125 3125 3125 3126 3114 3112 3112 3111 3109 3108 3107 3106 3106
3119 3116 3113 3111 3112 3108 3108 3108 3109 3109 3109 3110 3110 3111 3112 3113 3114 3114 3115 3116 3116 3116 3116 3117 3117 3117 3118 3118 3118 3119 3119 3120 3121 3121 3120 3118 3111 3109 3110 3108 3106 3105 3104 3103 3103
3119 3117 3115 3113 3111 3110 3110 3111 3111 3111 3111 3110 3110 3111 3110 3111 3114 3114 3114 3115 3115 3115 3115 3116 3116 3116 3116 3118 3115 3114 3115 3117 3117 3117 3114 3116 3108 3106 3105 3103 3102 3101 3100 3099 3098
3120 3119 3117 3114 3112 3112 3111 3111 3112 3112 3112 3112 3111 3111 3111 3110 3110 3111 3113 3114 3114 3114 3114 3115 3114 3114 3113 3113 3113 3112 3112 3112 3112 3110 3105 3100 3102 3103 3101 3099 3097 3095 3094 3093 3093
3122 3120 3118 3117 3114 3113 3112 3111 3110 3110 3110 3110 3111 3112 3112 3111 3111 3110 3110 3110 3111 3112 3112 3112 3111 3110 3109 3109 3108 3105 3105 3105 3102 3102 3100 3095 3094 3095 3094 3093 3090 3089 3088 3088 3087
3123 3120 3118 3116 3115 3114 3112 3111 3110 3109 3109 3108 3108 3109 3110 3111 3111 3110 3110 3110 3109 3108 3108 3108 3107 3105 3103 3104 3101 3095 3095 3094 3093 3092 3089 3090 3086 3089 3086 3084 3084 3085 3084 3083 3082
3120 3119 3118 3116 3114 3114 3113 3112 3110 3109 3107 3106 3106 3106 3105 3106 3106 3107 3107 3107 3106 3106 3105 3104 3103 3101 3096 3096 3093 3089 3083 3084 3084 3085 3084 3082 3083 3084 3082 3082 3082 3080 3079 3077 3076